GW3601 Weather Reports


time (UTC)temp
C
wind
direction
speed
KPH
gust
KPH
rain 1hr
cm
rain 24hr
cm
rain mn
cm
humidity
%
barometer
mb
20260906232636 26 45 0.0 4.8 0.00 0.00 0.00 28 1028.8
20260906231637 26 45 1.6 3.2 0.00 0.00 0.00 30 1029.0
20260906230736 25 45 1.6 3.2 0.00 0.00 0.00 30 1029.1
20260906225737 25 45 0.0 1.6 0.00 0.00 0.00 30 1029.2
20260906224737 25 45 0.0 3.2 0.00 0.00 0.00 30 1029.1
20260906223738 25 45 1.6 3.2 0.00 0.00 0.00 29 1029.2
20260906222836 25 45 0.0 1.6 0.00 0.00 0.00 29 1029.3
20260906221840 26 45 1.6 4.8 0.00 0.00 0.00 29 1029.5
20260906220838 26 45 0.0 1.6 0.00 0.00 0.00 28 1029.4
20260906215839 26 45 1.6 3.2 0.00 0.00 0.00 29 1029.5
20260906214836 26 45 1.6 4.8 0.00 0.00 0.00 28 1029.7
20260906213838 26 45 1.6 3.2 0.00 0.00 0.00 28 1029.5
20260906212836 26 22 1.6 4.8 0.00 0.00 0.00 27 1029.3
20260906210838 26 22 1.6 3.2 0.00 0.00 0.00 27 1029.5
20260906204839 27 360 4.8 8.0 0.00 0.00 0.00 26 1029.6
20260906203937 27 45 0.0 0.0 0.00 0.00 0.00 26 1029.7
20260906202953 27 45 0.0 0.0 0.00 0.00 0.00 27 1029.9
20260906200937 26 45 0.0 1.6 0.00 0.00 0.00 28 1030.1
20260906195938 26 45 3.2 6.4 0.00 0.00 0.00 28 1030.2
20260906194937 26 45 1.6 4.8 0.00 0.00 0.00 27 1030.2
20260906193937 26 45 0.0 1.6 0.00 0.00 0.00 28 1030.3
20260906192936 27 45 0.0 3.2 0.00 0.00 0.00 27 1030.6
20260906191939 27 45 0.0 1.6 0.00 0.00 0.00 28 1030.6
20260906185938 25 45 0.0 6.4 0.00 0.00 0.00 30 1030.8
20260906184937 25 45 0.0 1.6 0.00 0.00 0.00 28 1031.1
20260906184037 26 45 0.0 0.0 0.00 0.00 0.00 27 1031.0
20260906183040 26 45 0.0 1.6 0.00 0.00 0.00 26 1031.0
20260906181041 25 45 0.0 3.2 0.00 0.00 0.00 27 1031.5
20260906180037 25 45 0.0 1.6 0.00 0.00 0.00 28 1031.6
20260906175038 25 45 0.0 1.6 0.00 0.00 0.00 26 1031.7
20260906174038 26 45 0.0 4.8 0.00 0.00 0.00 25 1031.9
20260906173038 26 45 1.6 3.2 0.00 0.00 0.00 24 1031.9
20260906172038 25 45 0.0 1.6 0.00 0.00 0.00 26 1031.8
20260906171039 25 45 0.0 3.2 0.00 0.00 0.00 27 1032.0
20260906165137 25 67 1.6 3.2 0.00 0.00 0.00 24 1032.1
20260906164236 25 67 0.0 1.6 0.00 0.00 0.00 26 1032.1
20260906163238 25 67 0.0 1.6 0.00 0.00 0.00 26 1032.1
20260906162337 24 67 0.0 1.6 0.00 0.00 0.00 26 1032.2
20260906160438 24 67 0.0 0.0 0.00 0.00 0.00 26 1032.0
20260906155439 23 67 0.0 0.0 0.00 0.00 0.00 28 1032.0
20260906154538 22 67 0.0 1.6 0.00 0.00 0.00 32 1032.2
20260906153538 21 67 0.0 0.0 0.00 0.00 0.00 37 1032.2
20260906151637 18 67 0.0 0.0 0.00 0.00 0.00 42 1032.4
20260906150638 18 67 0.0 0.0 0.00 0.00 0.00 43 1032.3
20260906145639 17 67 0.0 0.0 0.00 0.00 0.00 42 1032.3
20260906144737 17 67 0.0 0.0 0.00 0.00 0.00 44 1032.2
20260906143753 16 67 0.0 1.6 0.00 0.00 0.00 47 1032.3
20260906142738 15 67 0.0 0.0 0.00 0.00 0.00 51 1032.2
20260906141739 13 67 0.0 0.0 0.00 0.00 0.00 55 1032.3
20260906140837 12 67 0.0 0.0 0.00 0.00 0.00 55 1032.4
20260906135936 11 67 0.0 0.0 0.00 0.00 0.00 56 1032.4
20260906134940 10 67 0.0 0.0 0.00 0.00 0.00 59 1032.1
20260906133939 8 67 0.0 0.0 0.00 0.00 0.00 61 1032.0
20260906133036 8 67 0.0 0.0 0.00 0.00 0.00 61 1031.9
20260906132038 8 67 0.0 0.0 0.00 0.00 0.00 62 1031.7
20260906131038 7 67 0.0 1.6 0.00 0.00 0.00 61 1031.7
20260906130038 8 67 0.0 0.0 0.00 0.00 0.00 59 1031.4
20260906125137 8 67 0.0 0.0 0.00 0.00 0.00 57 1031.4
20260906124139 8 67 0.0 0.0 0.00 0.00 0.00 56 1031.4
20260906123139 8 67 0.0 0.0 0.00 0.00 0.00 57 1031.4
20260906122136 8 67 0.0 1.6 0.00 0.00 0.00 56 1031.3
20260906121139 8 67 0.0 0.0 0.00 0.00 0.00 57 1031.1
20260906120237 8 67 0.0 0.0 0.00 0.00 0.00 56 1031.2
20260906115236 8 67 0.0 0.0 0.00 0.00 0.00 56 1031.1
20260906114237 8 67 0.0 0.0 0.00 0.00 0.00 55 1031.2
20260906112336 9 67 0.0 0.0 0.00 0.00 0.00 54 1031.2
20260906111340 9 67 0.0 1.6 0.00 0.00 0.00 54 1031.2
20260906105437 9 67 1.6 3.2 0.00 0.00 0.00 52 1031.1
20260906104536 9 67 0.0 0.0 0.00 0.00 0.00 52 1030.9
20260906103539 10 67 0.0 0.0 0.00 0.00 0.00 50 1030.9
20260906102636 10 67 0.0 0.0 0.00 0.00 0.00 51 1030.8
20260906101638 10 67 0.0 0.0 0.00 0.00 0.00 51 1030.8
20260906100639 10 67 1.6 1.6 0.00 0.00 0.00 52 1031.0
20260906095737 9 67 0.0 0.0 0.00 0.00 0.00 53 1030.8
20260906094836 9 67 1.6 1.6 0.00 0.00 0.00 53 1030.9
20260906093838 8 67 1.6 1.6 0.00 0.00 0.00 54 1030.8
20260906092936 9 67 0.0 0.0 0.00 0.00 0.00 53 1030.8
20260906090953 9 67 1.6 3.2 0.00 0.00 0.00 53 1030.9
20260906085036 9 67 0.0 3.2 0.00 0.00 0.00 52 1030.9
20260906083039 10 67 0.0 0.0 0.00 0.00 0.00 51 1031.1
20260906082037 10 67 0.0 0.0 0.00 0.00 0.00 51 1031.1
20260906081036 10 67 1.6 3.2 0.00 0.00 0.00 49 1031.2
20260906080038 10 67 1.6 3.2 0.00 0.00 0.00 51 1031.3
20260906075038 10 67 0.0 1.6 0.00 0.00 0.00 51 1031.3
20260906073037 11 67 0.0 1.6 0.00 0.00 0.00 49 1031.3
20260906072038 11 67 0.0 0.0 0.00 0.00 0.00 50 1031.3
20260906071037 11 67 1.6 3.2 0.00 0.00 0.00 50 1031.3
20260906070039 11 67 0.0 0.0 0.00 0.00 0.00 48 1031.4
20260906065036 12 67 0.0 0.0 0.00 0.00 0.00 46 1031.3
20260906063038 12 67 0.0 1.6 0.00 0.00 0.00 45 1031.4
20260906062037 12 67 0.0 0.0 0.00 0.00 0.00 45 1031.4
20260906060137 13 67 0.0 0.0 0.00 0.00 0.00 45 1031.5
20260906055226 13 67 1.6 1.6 0.00 0.00 0.00 45 1031.7
20260906054226 13 67 0.0 1.6 0.00 0.00 0.00 44 1031.8
20260906053226 13 67 0.0 0.0 0.00 0.00 0.00 44 1031.8
20260906052226 13 67 0.0 0.0 0.00 0.00 0.00 44 1031.7
20260906051325 13 67 0.0 0.0 0.00 0.00 0.00 43 1031.8
20260906045326 14 67 1.6 1.6 0.00 0.00 0.00 42 1031.8
20260906044327 14 67 1.6 3.2 0.00 0.00 0.00 42 1031.8
20260906043426 15 67 0.0 0.0 0.00 0.00 0.00 42 1031.8
20260906042425 15 67 0.0 3.2 0.00 0.00 0.00 40 1031.9
20260906041425 15 67 0.0 3.2 0.00 0.00 0.00 41 1032.0
20260906040427 15 67 1.6 1.6 0.00 0.00 0.00 40 1031.9
20260906035526 15 67 3.2 4.8 0.00 0.00 0.00 41 1031.8
20260906034527 16 67 0.0 0.0 0.00 0.00 0.00 40 1031.8
20260906033527 16 67 0.0 0.0 0.00 0.00 0.00 39 1031.8
20260906032526 17 67 0.0 3.2 0.00 0.00 0.00 38 1031.7
20260906030627 17 67 0.0 1.6 0.00 0.00 0.00 35 1031.4
20260906025626 18 67 0.0 1.6 0.00 0.00 0.00 35 1031.4
20260906024626 18 67 0.0 0.0 0.00 0.00 0.00 34 1031.3
20260906023628 18 67 0.0 1.6 0.00 0.00 0.00 34 1031.2
20260906022626 19 67 0.0 1.6 0.00 0.00 0.00 34 1030.8
20260906021627 19 67 0.0 0.0 0.00 0.00 0.00 34 1030.6
20260906020626 20 67 0.0 0.0 0.00 0.00 0.00 32 1030.6
20260906015624 20 67 0.0 0.0 0.00 0.00 0.00 33 1030.4
20260906014626 21 67 0.0 1.6 0.00 0.00 0.00 32 1030.5
20260906013627 21 67 0.0 0.0 0.00 0.00 0.00 32 1030.6
20260906012626 21 67 0.0 1.6 0.00 0.00 0.00 31 1030.5
20260906011625 22 67 0.0 1.6 0.00 0.00 0.00 30 1030.4
20260906010627 23 67 0.0 0.0 0.00 0.00 0.00 30 1030.3
20260906005624 23 67 1.6 3.2 0.00 0.00 0.00 29 1030.4
20260906004626 24 67 3.2 4.8 0.00 0.00 0.00 28 1030.4
20260906003724 25 67 1.6 3.2 0.00 0.00 0.00 28 1030.4
20260906002725 25 67 3.2 4.8 0.00 0.00 0.00 27 1030.3
20260906001726 25 67 3.2 4.8 0.00 0.00 0.00 28 1030.2
20260906000726 24 67 3.2 8.0 0.00 0.00 0.00 27 1030.2
20260905235727 25 67 3.2 4.8 0.00 0.00 0.00 27 1030.1
20260905234727 25 67 3.2 4.8 0.00 0.00 0.00 28 1030.1
20260905233825 25 67 1.6 4.8 0.00 0.00 0.00 28 1030.1
20260905232827 25 67 1.6 3.2 0.00 0.00 0.00 28 1030.2